GTI654 RPLC-RKSI

Flight info

Callsign GTI654
Flight time N/A
Altitude 35000
Route RIANO4R RIANO TR25 CAB N884 ALBAX Y531 YURIX Y27 RUSAR Y579 RUGMA Z85 BILUM DCT MELES DCT OLMEN OLMEN2E
Aircraft B748/H-V/N

Departure

Time 2026-05-04 05:38
Airport Clark International Airport / Clark Air Base (RPLC)

Arrival

Time N/A
Airport Incheon International Airport (RKSI)
Time Latitude Longitude Altitude Speed Heading
2026-05-04 04:59 15.18254 120.54853 442 ft 0 kts 290°
2026-05-04 05:21 15.18250 120.54865 426 ft 2 kts 292°
2026-05-04 05:21 15.18243 120.54881 426 ft 2 kts 293°
2026-05-04 05:22 15.18237 120.54897 426 ft 2 kts 295°
2026-05-04 05:22 15.18229 120.54912 426 ft 2 kts 301°
2026-05-04 05:22 15.18220 120.54927 426 ft 2 kts 319°
2026-05-04 05:22 15.18206 120.54936 429 ft 2 kts
2026-05-04 05:23 15.18196 120.54934 426 ft 1 kts 20°
2026-05-04 05:23 15.18195 120.54933 426 ft 0 kts 20°
2026-05-04 05:26 15.18204 120.54937 426 ft 4 kts 21°
2026-05-04 05:27 15.18250 120.54955 431 ft 10 kts 21°
2026-05-04 05:28 15.18420 120.55269 431 ft 14 kts 111°
2026-05-04 05:29 15.18387 120.55357 430 ft 12 kts 111°
2026-05-04 05:29 15.18359 120.55430 434 ft 10 kts 111°
2026-05-04 05:29 15.18338 120.55489 431 ft 8 kts 111°
2026-05-04 05:29 15.18316 120.55547 432 ft 8 kts 111°
2026-05-04 05:31 15.18633 120.55831 429 ft 23 kts 21°
2026-05-04 05:31 15.18792 120.55894 429 ft 24 kts 21°
2026-05-04 05:32 15.18938 120.55952 437 ft 21 kts 21°
2026-05-04 05:32 15.19056 120.55998 431 ft 13 kts 20°
2026-05-04 05:32 15.19110 120.56033 430 ft 5 kts 64°
2026-05-04 05:33 15.19092 120.56121 442 ft 8 kts 81°
2026-05-04 05:33 15.19136 120.56156 436 ft 11 kts 20°
2026-05-04 05:33 15.19244 120.56198 428 ft 21 kts 21°
2026-05-04 05:33 15.19396 120.56258 437 ft 26 kts 20°
2026-05-04 05:34 15.19566 120.56325 437 ft 25 kts 21°
2026-05-04 05:34 15.19720 120.56387 436 ft 22 kts 21°
2026-05-04 05:34 15.19856 120.56441 430 ft 20 kts 21°
2026-05-04 05:34 15.19975 120.56489 435 ft 17 kts 21°
2026-05-04 05:35 15.20077 120.56528 437 ft 14 kts 20°
2026-05-04 05:35 15.20136 120.56567 427 ft 7 kts 63°
2026-05-04 05:35 15.20144 120.56611 443 ft 6 kts 81°
2026-05-04 05:35 15.20150 120.56647 438 ft 4 kts 81°
2026-05-04 05:36 15.20157 120.56694 437 ft 10 kts 81°
2026-05-04 05:36 15.20150 120.56785 435 ft 16 kts 107°
2026-05-04 05:36 15.20077 120.56829 427 ft 13 kts 196°
2026-05-04 05:36 15.19960 120.56783 436 ft 26 kts 202°
2026-05-04 05:37 15.19633 120.56653 437 ft 77 kts 201°
2026-05-04 05:37 15.18955 120.56385 436 ft 131 kts 201°
2026-05-04 05:37 15.17935 120.55982 511 ft 181 kts 201°
2026-05-04 05:38 15.15378 120.54975 2082 ft 206 kts 198°
2026-05-04 05:38 15.14008 120.54419 2917 ft 216 kts 199°
2026-05-04 05:38 15.12496 120.54072 3559 ft 236 kts 175°
2026-05-04 05:38 15.10884 120.54576 4169 ft 252 kts 146°
2026-05-04 05:39 15.09625 120.55884 4865 ft 265 kts 118°
2026-05-04 05:39 15.09533 120.59516 6879 ft 265 kts 60°
2026-05-04 05:39 15.10794 120.60919 7783 ft 273 kts 32°
2026-05-04 05:40 15.14411 120.62354 9580 ft 285 kts 18°
2026-05-04 05:40 15.16324 120.62949 10406 ft 289 kts 18°
2026-05-04 05:40 15.18288 120.63533 11040 ft 302 kts 17°
2026-05-04 05:41 15.20371 120.64141 11508 ft 319 kts 17°
2026-05-04 05:41 15.22554 120.64783 12016 ft 333 kts 20°
2026-05-04 05:41 15.24613 120.65926 12527 ft 344 kts 37°
2026-05-04 05:41 15.26541 120.67521 12763 ft 365 kts 46°
2026-05-04 05:42 15.28154 120.69620 13074 ft 382 kts 58°
2026-05-04 05:42 15.29552 120.72024 13432 ft 397 kts 61°
2026-05-04 05:42 15.30939 120.74560 13785 ft 411 kts 62°
2026-05-04 05:42 15.32355 120.77186 14099 ft 424 kts 61°
2026-05-04 05:43 15.33886 120.79833 14599 ft 430 kts 58°
2026-05-04 05:43 15.35527 120.82444 15131 ft 436 kts 57°
2026-05-04 05:43 15.37195 120.85083 15676 ft 440 kts 57°
2026-05-04 05:45 15.50337 121.03490 19044 ft 470 kts 33°
2026-05-04 05:45 15.53210 121.05125 19473 ft 473 kts 25°
2026-05-04 05:47 15.74814 121.15577 24458 ft 510 kts 25°
2026-05-04 05:47 15.78035 121.17174 25061 ft 516 kts 25°
2026-05-04 05:47 15.81287 121.18805 25661 ft 521 kts 25°
2026-05-04 05:48 15.84572 121.20454 26242 ft 527 kts 25°
2026-05-04 05:48 15.87896 121.22118 26833 ft 533 kts 25°
2026-05-04 05:48 15.91257 121.23795 27374 ft 539 kts 25°
2026-05-04 05:48 15.94654 121.25489 27969 ft 544 kts 24°
2026-05-04 05:49 15.98078 121.27196 28578 ft 547 kts 24°
2026-05-04 05:49 16.01502 121.28908 29416 ft 547 kts 24°
2026-05-04 05:49 16.04927 121.30616 30254 ft 545 kts 24°
2026-05-04 05:49 16.08346 121.32321 31017 ft 544 kts 24°
2026-05-04 05:51 16.30923 121.43597 34944 ft 538 kts 23°
2026-05-04 05:51 16.34297 121.45283 34927 ft 537 kts 23°
2026-05-04 05:52 16.40985 121.48633 34934 ft 536 kts 23°
2026-05-04 05:52 16.47742 121.52012 34929 ft 539 kts 23°
2026-05-04 05:54 16.74767 121.65571 34890 ft 538 kts 23°
2026-05-04 05:55 16.81517 121.68965 34889 ft 538 kts 23°
2026-05-04 05:55 16.88224 121.72339 34886 ft 538 kts 23°
2026-05-04 05:56 16.94975 121.75737 34882 ft 539 kts 24°
2026-05-04 05:56 17.01639 121.79333 34888 ft 539 kts 25°
2026-05-04 05:57 17.08332 121.82871 34898 ft 538 kts 24°
2026-05-04 05:57 17.15028 121.86401 34903 ft 539 kts 25°
2026-05-04 05:58 17.21709 121.89974 34907 ft 539 kts 25°
2026-05-04 05:58 17.28391 121.93544 34917 ft 539 kts 25°
2026-05-04 05:59 17.35078 121.97114 34924 ft 539 kts 24°
2026-05-04 05:59 17.41761 122.00680 34934 ft 540 kts 25°
2026-05-04 06:00 17.48455 122.04242 34921 ft 539 kts 24°
2026-05-04 06:00 17.55135 122.07802 34947 ft 539 kts 24°
2026-05-04 06:01 17.61817 122.11379 34941 ft 538 kts 25°
2026-05-04 06:03 17.88540 122.25652 34940 ft 539 kts 24°
2026-05-04 06:05 18.18831 122.41386 34944 ft 539 kts 24°
2026-05-04 06:06 18.25551 122.44903 34943 ft 539 kts 24°
2026-05-04 06:06 18.32233 122.48390 34939 ft 540 kts 24°
2026-05-04 06:07 18.38966 122.51901 34940 ft 540 kts 24°
2026-05-04 06:07 18.45695 122.55418 34944 ft 539 kts 24°
2026-05-04 06:08 18.52414 122.58932 34943 ft 539 kts 24°
2026-05-04 06:08 18.59137 122.62459 34942 ft 539 kts 24°
2026-05-04 06:09 18.65860 122.65981 34943 ft 540 kts 24°
2026-05-04 06:11 18.92702 122.80101 34940 ft 540 kts 24°
2026-05-04 06:13 19.19602 122.94287 34945 ft 540 kts 24°
2026-05-04 06:14 19.43136 123.06751 34952 ft 540 kts 24°
2026-05-04 06:15 19.49858 123.10331 34952 ft 541 kts 24°
2026-05-04 06:15 19.56537 123.13871 34955 ft 540 kts 24°
2026-05-04 06:16 19.63259 123.17429 34958 ft 540 kts 24°
2026-05-04 06:16 19.69982 123.21003 34959 ft 540 kts 24°
2026-05-04 06:17 19.76696 123.24579 34957 ft 540 kts 24°
2026-05-04 06:17 19.83406 123.28156 34955 ft 540 kts 24°
2026-05-04 06:18 19.90121 123.31738 34959 ft 540 kts 24°
2026-05-04 06:20 20.16967 123.46097 34963 ft 539 kts 24°
2026-05-04 06:21 20.33688 123.55061 34962 ft 540 kts 24°
2026-05-04 06:22 20.40390 123.58663 34965 ft 539 kts 24°
2026-05-04 06:25 20.87296 123.83969 34971 ft 540 kts 24°
2026-05-04 06:26 20.93991 123.87595 34963 ft 540 kts 24°
2026-05-04 06:26 21.00696 123.91224 34963 ft 540 kts 24°
2026-05-04 06:27 21.17412 124.00278 34974 ft 540 kts 24°
2026-05-04 06:28 21.24113 124.03911 34973 ft 540 kts 24°
2026-05-04 06:28 21.30828 124.07556 34978 ft 540 kts 24°
2026-05-04 06:29 21.37540 124.11203 34977 ft 541 kts 24°
2026-05-04 06:29 21.44249 124.14852 34979 ft 541 kts 24°
2026-05-04 06:30 21.50965 124.18508 34974 ft 541 kts 24°
2026-05-04 06:30 21.57681 124.22169 34974 ft 541 kts 23°
2026-05-04 06:31 21.64405 124.25837 34980 ft 541 kts 23°
2026-05-04 06:31 21.71127 124.29508 34981 ft 542 kts 23°
2026-05-04 06:33 21.98004 124.44226 34980 ft 542 kts 23°
2026-05-04 06:34 22.04676 124.47889 34981 ft 542 kts 23°
2026-05-04 06:34 22.11404 124.51588 34985 ft 543 kts 23°
2026-05-04 06:36 22.38345 124.66436 34987 ft 544 kts 23°
2026-05-04 06:37 22.45090 124.70160 34990 ft 544 kts 23°
2026-05-04 06:37 22.51830 124.73892 34995 ft 545 kts 23°
2026-05-04 06:38 22.57441 124.77002 34995 ft 545 kts 23°
2026-05-04 06:40 22.84530 124.92046 35006 ft 548 kts 23°
2026-05-04 06:40 22.91317 124.95826 35005 ft 548 kts 23°
2026-05-04 06:41 22.98108 124.99612 35007 ft 549 kts 23°
2026-05-04 06:41 23.04901 125.03403 35013 ft 549 kts 23°
2026-05-04 06:42 23.11704 125.07206 35004 ft 550 kts 23°
2026-05-04 06:44 23.38889 125.22440 35014 ft 551 kts 23°
2026-05-04 06:44 23.45705 125.26271 35011 ft 551 kts 23°
2026-05-04 06:45 23.52521 125.30106 35012 ft 552 kts 23°
2026-05-04 06:45 23.59350 125.33945 35015 ft 552 kts 23°
2026-05-04 06:46 23.66176 125.37804 35019 ft 553 kts 23°
2026-05-04 06:46 23.73012 125.41669 35022 ft 553 kts 23°
2026-05-04 06:48 24.00345 125.57145 35038 ft 555 kts 23°
2026-05-04 06:50 24.27789 125.72764 35041 ft 556 kts 23°
2026-05-04 06:51 24.34656 125.76685 35047 ft 557 kts 23°
2026-05-04 06:51 24.41526 125.80612 35052 ft 557 kts 23°
2026-05-04 06:52 24.48357 125.84521 35054 ft 558 kts 23°
2026-05-04 06:52 24.55239 125.88464 35061 ft 558 kts 23°
2026-05-04 06:53 24.62125 125.92415 35057 ft 559 kts 23°
2026-05-04 06:53 24.69016 125.96374 35065 ft 559 kts 23°
2026-05-04 06:54 24.75918 126.00343 35067 ft 560 kts 23°
2026-05-04 06:54 24.82821 126.04320 35065 ft 560 kts 23°
2026-05-04 06:55 24.89725 126.08300 35062 ft 561 kts 23°
2026-05-04 06:55 24.96644 126.12293 35070 ft 561 kts 23°
2026-05-04 06:57 25.24351 126.28310 35083 ft 563 kts 23°
2026-05-04 06:58 25.31287 126.32363 35095 ft 564 kts 23°
2026-05-04 06:58 25.38243 126.36373 35078 ft 564 kts 22°
2026-05-04 06:59 25.45188 126.40436 35079 ft 564 kts 23°
2026-05-04 06:59 25.52133 126.44497 35086 ft 564 kts 22°
2026-05-04 07:01 25.79956 126.60790 35105 ft 568 kts 23°
2026-05-04 07:02 25.86951 126.64849 35103 ft 567 kts 22°
2026-05-04 07:02 25.93925 126.68985 35102 ft 569 kts 23°
2026-05-04 07:03 26.00917 126.73075 35109 ft 568 kts 22°
2026-05-04 07:03 26.07908 126.77208 35107 ft 570 kts 23°
2026-05-04 07:04 26.14903 126.81352 35106 ft 569 kts 22°
2026-05-04 07:04 26.21921 126.85474 35111 ft 571 kts 23°
2026-05-04 07:05 26.28881 126.89645 35112 ft 570 kts 22°
2026-05-04 07:05 26.35916 126.93758 35112 ft 571 kts 23°
2026-05-04 07:06 26.46444 127.00019 35115 ft 571 kts 22°
2026-05-04 07:07 26.53472 127.04214 35113 ft 573 kts 23°
2026-05-04 07:09 26.81591 127.20990 35121 ft 575 kts 23°
2026-05-04 07:09 26.88637 127.25232 35133 ft 574 kts 21°
2026-05-04 07:10 26.95711 127.29452 35127 ft 576 kts 23°
2026-05-04 07:12 27.24002 127.46491 35124 ft 578 kts 23°